Погода Одесское

Погода Одесское : погода сейчас, прогноз погоды и архив. Всё, что Вы хотите узнать о погоде Одесское!

Хотите узнать прогноз погоды Одесское? Тогда Вам сюда: Погода Одесское

Поиск расширенной информации на нашем сайте:

Другие новости

Новости СМИ2

Главная страница сайта

Новости сайта

03.07.2017

Напоминаем, что на нашем специализированном сайте Метеоцентр.Азия вы можете получить высокодетализированные автоматические прогнозы погоды по пунктам России, СНГ и мира в авиационном формате (включающие направление и скорость ветра, видимость, явления погоды, количество и форму облачности, нижнюю и верхнюю границу облачности).


Погода Одесское - сегодня

Время (UTC), дата Ветер
(°,м/с) 
Видим.   Явления Облачность Т
(°С)
Тd
(°С)
f(%) Тe
(°С)
Pmin
(гПа)
dP
(гПа)
Po
(мм)
O2
(г/м3)
Тmin Tmax R s Состояние
почвы
00 11.12.17 190 (Ю) 10 км  {снег}  10/0 средняя 
[As trans]
-9.7 -10.1 97 -11  1015.6  0.2  750  314           
03 11.12.17 160 (Ю) 10 км  в посл. час снег  10/0 верхняя 
[Ci sp]
-10.7 -11.3 95 -11  1017  1.3  750  316  -10.7    17  равномерный
сухой снег
100% 
06 11.12.17 030 (СВ) 4000 м  в посл. час туман{снег} [диам. изморози 2 мм]  10/10 150 м 
[St]
-14.3 -15.2 93 -14  1019.1  1.9  752  321  -14.6         
09 11.12.17 030 (СВ) 10 км  [диам. изморози 0 мм]  10/10 360 м 
[St]
-13.4 -14.4 92 -17  1020.8  1.7  753  320           
12 11.12.17 010 (С) 4000 м  слаб. снег  10/10 400 м 
[St]
-12.7 -13.5 94 -15  1023.5  2.6  755  320           
15 11.12.17 360 (С) 10 км  {снег}  10/10 420 м 
[St]
-14.8 -15.9 91 -17  1025.7  757  324    -10.7  0.4     
18 11.12.17 010 (С) 2000 м  дымка{снег} [диам. изморози 3 мм]  10/10 300 м 
[St]
-17 -18.3 90 -19  1028.4  2.5  759  327           
21 11.12.17 030 (СВ) 0500 м  переохл. туман [диам. изморози 15 мм]  ?/?  
-13.3 -14.2 93 -17  1029.8  1.6  760  323           
00 12.12.17 340 (С) 4000 м  слаб. снег{туман} [диам. изморози 18 мм]  10/10 330 м 
[St]
-12.2 -13 94 -12  1031.5  1.7  761  322           
03 12.12.17 350 (С) 4000 м  слаб. снег [диам. изморози 18 мм]  10/6 630 м средняя 
[Sc|Ac trans]
-13.1 -14 93 -15  1033.9  2.4  763  324  -18.4    0.2  18  равномерный
сухой снег
100% 
06 12.12.17 350 (С) 4000 м  дымка{снег} [диам. изморози 18 мм]  3/3 300 м 
[St]
-17.2 -18.5 90 -17  1036.2  1.9  764  330           
09 12.12.17 320 (СЗ) 10 км  [диам. изморози 0 мм]  3/0 верхняя 
[Ci fib]
-16.4 -17.8 89 -17  1037.6  1.5  765  330           
12 12.12.17 280 (З) 0500 м  переохл. туман [диам. изморози 0.2 мм]  10/0 верхняя 
[Ci fib]
-21.9 -23.9 84 -22  1040.1  2.1  767  338           
15 12.12.17 280 (З) 0200 м  переохл. туман [диам. изморози 3 мм]  ясно 
-21.5 -23.4 85 -22  1041.8  1.7  768  338    -13.1  0.0     
18 12.12.17 тихо ()   0200 м  переохл. туман [диам. изморози 5 мм]  ?/?  
-23 -25.1 83 -23  1043.3  1.3  769  340           
21 12.12.17 250 (З) 0500 м  переохл. туман [диам. изморози 8 мм]  ясно 
-24.1 -26.3 82 -25  1044.6  1.3  770  342           
00 13.12.17 230 (ЮЗ) 0500 м  переохл. туман [диам. изморози 11 мм]  ясно 
-24.4 -26.6 82 -25  1045.5  0.8  771  343           
03 13.12.17 180 (Ю) 0500 м  переохл. туман [диам. изморози 13 мм]  ?/?  
-23.6 -25.7 83 -24  1046.9  1.4  772  342  -25.2      18  равномерный
сухой снег
100% 
06 13.12.17 230 (ЮЗ) 10 км  {туман} [диам. изморози 18 мм]  3/0 верхняя 
[Ci fib]
-21.3 -23.1 85 -22  1047.7  773  339           
09 13.12.17 240 (ЮЗ) 10 км  [диам. изморози 18 мм]  4/4 300 м 
[St]
-21.3 -23.2 85 -24  1048.1  0.4  773  340           
12 13.12.17 200 (Ю) 10 км  [диам. изморози 18 мм]  4/0 верхняя 
[Ci fib]
-22.5 -24.5 84 -23  1048.6  0.4  773  341           
15 13.12.17 170 (Ю) 1000 м  дымка [диам. изморози 19 мм]  10/10 150 м 
[St]
-23.3 -25.5 82 -24  1049.3  0.6  774  343    -20.2       
18 13.12.17 200 (Ю) 1000 м  дымка [диам. изморози 24 мм]  10/10 120 м 
[St]
-24 -26.3 81 -24  1049.8  0.4  774  344           
21 13.12.17 180 (Ю) 0500 м  переохл. туман [диам. изморози 27 мм]  ясно 
-22.8 -24.9 83 -26  1050  0.2  774  342           
00 14.12.17 200 (Ю) 0500 м  переохл. туман [диам. изморози 31 мм]  ясно 
-23.1 -25.2 83 -24  1050.7  0.7  775  343           
Время (UTC), дата Ветер
(°,м/с) 
Видим.   Явления Облачность Т
(°С)
Тd
(°С)
f(%) Тe
(°С)
Pmin
(гПа)
dP
(гПа)
Po
(мм)
O2
(г/м3)
Тmin Tmax R s Состояние
почвы

Для получения пояснительной информации подведите курсор к названию столбца.

ПОГОДА Одесское - архив

Всё, что Вы хотите узнать о погоде Одесское - удобно и подробно!

Выберите нужную дату (начиная с 1 января 2015* года) и нажмите кнопку "Найти".
Будут отображены архивные сводки погоды по пункту Одесское, начиная с указанной даты.


Отображать данные в формате CSV (для использования в таблицах Excel)


Внимание! Наш архив погоды предназначен исключительно для личного некоммерческого использования в познавательных целях. Если Вам необходимы официальные справки о состоянии погоды (для производственных, юридических, коммерческих и т.п. целей), обращайтесь в органы Росгидромета.

*Примечание: данная дата относится к архиву по метеостанциям СССР (Россия, СНГ, Балтия).
Архив по метеостанциям Зарубежной Европы и Азии (кроме Китая) хранится 10 дней, по другим регионам земного шара (Китай, Африка, Америка, Австралия, Океания) - 1 день.

Одесское - район местоположения метеостанции


Название, широта, долгота, высота метеостанции:
Одесское 54.2°ш. 73°д. 125 м над ур. моря [Российская Федерация]

Дополнительная информация

В oтличие oт бoльшинства пoгoдных сайтoв мы публикуем пoдрoбную метеoинфoрмацию в детальнoм прoфессиoнальнoм фoрмате.

Характеристики температуры и влажнoсти вoздуха измеряются на высoте 2 м в тени вдали oт зданий и деревьев.
Скoрoсть ветра измеряется на высoте 10 м (на урoвне рoста челoвека скoрoсть ветра ниже в 1.5-2 раза). Если метеoстанция нахoдится в гoрoде или в лесу, тo скoрoсть ветра занижена на 2-4 м/с пo сравнению с oткрытым местoм. Скoрoсть ветра над акватoриями крупных рек и oзёр, а также на вершинах хoлмoв на 2-5 м/с выше, чем в oбычных услoвиях.
Атмoсфернoе давление в разных тoчках местнoсти мoжет значительнo oтличаться oт давления на метеoстанции, в зависимoсти oт услoвий рельефа (при пoдъёме на 10 м давление пoнижается примернo на 1 мм рт.ст.).